sat.trackr.live / text

‹ back to catalog

STARLINK-4123

NORAD 53539 · 2022-101N

PAYLOAD ACTIVE UNKNOWN

§ Identity

Operator
Country
US
Launch date
2022-08-19
Launch site
AFETR
Launch vehicle
Mass (kg)
RCS (m²)

Purposes: comms

External: N2YO · Heavens-Above · Gunter

§ Orbital elements

Epoch: 2026-05-25T02:22:46.336224Z

Period
95.44 min
Inclination
53.2132°
Eccentricity
0.0001355
Mean motion
15.08842570 rev/d
Perigee alt
538.8 km
Apogee alt
540.7 km
Semi-major
6,917.9 km
B*
4.4192e-5
RAAN
91.1048°
Arg perigee
70.6075°
Mean anomaly
289.5064°
Rev number
20,770

§ Raw data

STARLINK-41231 53539U 22101N   26145.09914741  .00000416  00000+0  44192-4 0  99982 53539  53.2132  91.1048 0001355  70.6075 289.5064 15.08842570207705

JSON: /api/v1/satellites/53539 · /tle

For live sub-satellite position, see the globe view (requires WebGL).

§ Visibility from observer

Set your observer location to see the next 7 days of passes ≥ 10°. The values pass through the URL so the page stays shareable.

No JS? Fill the form by hand. The geolocation button needs JavaScript.